Lacon, IL

2:22 PM CST on December 02, 2016 (GMT -0600)
Lacon

Weather History for KC75 - April, 2013

Change the Weather History Date:

Thursday, April 11, 2013

  Actual Average (KPIA) Record (KPIA)
Temperature  
Mean Temperature 44 °F 51 °F  
Max Temperature 49 °F 61 °F 91 °F (1930)
Min Temperature 37 °F 40 °F 21 °F (1982)
Degree Days  
Heating Degree Days 22 15  
Month to date heating degree days 180  
Since 1 July heating degree days 5452  
Cooling Degree Days 0 0  
Month to date cooling degree days 0  
Year to date cooling degree days 1  
Moisture  
Dew Point 41 °F    
Average Humidity 90    
Maximum Humidity 100    
Minimum Humidity 75    
Precipitation  
Precipitation 0.07 in 0.12 in 2.05 in (1903)
Month to date precipitation 1.27  
Year to date precipitation 7.64  
Snow  
Snow 0.00 in 0.00 in 2.20 in (1997)
Month to date snowfall 0.4  
Since 1 July snowfall 24.4  
Snow Depth -    
Sea Level Pressure  
Sea Level Pressure 29.63 in    
Wind  
Wind Speed 11 mph (SW)    
Max Wind Speed 23 mph    
Max Gust Speed 31 mph    
Visibility 7 miles    
Events Rain    
T = Trace of Precipitation, MM = Missing Value Source: NWS Daily Summary

Daily Weather History Graph

Daily Weather History Graph

Search for Another Location

Airport or City:

Trip Planner

Search our weather history database for the weather conditions in past years. The results will help you decide how hot, cold, wet, or windy it might be!

Date:

Astronomy

Apr. 11, 2013 Rise Set
Actual Time 6:24 AM CDT 7:33 PM CDT
Civil Twilight 5:56 AM CDT 8:01 PM CDT
Nautical Twilight 5:22 AM CDT 8:35 PM CDT
Astronomical Twilight 4:46 AM CDT 9:11 PM CDT
Moon 6:55 AM CDT (4/11) 9:08 PM CDT (4/11)
Length of Visible Light 14h 05m
Length of Day
13h 09m
New Moon, 2% of the Moon is Illuminated
Apr 11
New Moon
Apr 18
First Quarter
Apr 25
Full
May 2
Last Quarter
May 9
New

Hourly Weather History & Observations

Time (CDT) Temp. Windchill Dew Point Humidity Pressure Visibility Wind Dir Wind Speed Gust Speed Precip Events Conditions
12:15 AM 41.5 °F 31.9 °F 40.3 °F 95% 29.72 in 10.0 mi East 23.0 mph 29.9 mph N/A Rain Light Rain
12:35 AM 41.4 °F 31.6 °F 40.3 °F 96% 29.70 in 10.0 mi East 23.0 mph 29.9 mph N/A   Light Drizzle
12:55 AM 41.5 °F 32.4 °F 40.1 °F 95% 29.70 in 10.0 mi East 20.7 mph 27.6 mph N/A   Overcast
1:15 AM 41.9 °F 32.3 °F 40.5 °F 95% - 10.0 mi East 23.0 mph 31.1 mph N/A   Overcast
1:35 AM 41.9 °F 32.6 °F 40.3 °F 94% 29.66 in 10.0 mi East 21.9 mph 31.1 mph N/A   Overcast
1:55 AM 42.1 °F 33.6 °F 40.6 °F 95% 29.66 in 10.0 mi East 18.4 mph 28.8 mph N/A   Overcast
2:15 AM 42.3 °F 36.3 °F 40.6 °F 94% 29.68 in 10.0 mi ESE 10.4 mph 24.2 mph N/A   Overcast
2:35 AM 42.8 °F 36.6 °F 41.0 °F 93% 29.68 in 10.0 mi ESE 11.5 mph 20.7 mph N/A   Overcast
2:55 AM 42.8 °F 36.2 °F 41.0 °F 93% 29.67 in 10.0 mi East 12.7 mph 19.6 mph N/A   Overcast
3:15 AM 42.8 °F 35.8 °F 41.0 °F 93% 29.67 in 7.0 mi ESE 13.8 mph 20.7 mph N/A Rain Light Rain
3:35 AM 42.6 °F 37.8 °F 41.0 °F 94% 29.66 in 7.0 mi East 8.1 mph 16.1 mph N/A   Light Drizzle
3:55 AM 42.8 °F 37.5 °F 41.0 °F 93% 29.65 in 10.0 mi East 9.2 mph - N/A   Overcast
4:15 AM 42.8 °F 36.2 °F 41.0 °F 93% 29.62 in 10.0 mi East 12.7 mph 21.9 mph N/A   Overcast
4:35 AM 42.8 °F 40.1 °F 41.2 °F 94% 29.64 in 10.0 mi East 4.6 mph - N/A   Overcast
4:55 AM 42.8 °F 40.1 °F 41.5 °F 95% 29.64 in 5.0 mi East 4.6 mph - 0.01 in   Drizzle
5:15 AM 42.8 °F 39.3 °F 41.9 °F 97% 29.62 in 3.0 mi East 5.8 mph - 0.01 in   Heavy Drizzle
5:35 AM 42.8 °F - 41.9 °F 97% 29.62 in 3.0 mi Calm Calm - 0.01 in   Drizzle
5:55 AM 42.8 °F - 41.9 °F 97% 29.62 in 3.0 mi Calm Calm - 0.02 in   Drizzle
6:15 AM 42.8 °F 40.1 °F 42.3 °F 98% 29.61 in 2.5 mi East 4.6 mph - N/A   Drizzle
6:35 AM 42.8 °F - 42.6 °F 99% 29.65 in 2.0 mi Calm Calm - 0.02 in Rain Heavy Rain
6:55 AM 43.0 °F - 42.8 °F 99% 29.65 in 1.8 mi Calm Calm - 0.03 in   Light Drizzle
7:15 AM 43.0 °F - 42.8 °F 99% 29.64 in 2.5 mi Calm Calm - N/A   Overcast
7:35 AM 43.0 °F 40.3 °F 42.8 °F 99% 29.63 in 5.0 mi North 4.6 mph - N/A   Overcast
7:55 AM 43.2 °F 40.5 °F 43.0 °F 99% 29.64 in 5.0 mi North 4.6 mph - N/A   Overcast
8:15 AM 43.7 °F 42.1 °F 43.2 °F 98% 29.64 in 4.0 mi North 3.5 mph - N/A   Overcast
8:35 AM 43.9 °F 42.3 °F 43.3 °F 98% 29.64 in 10.0 mi NE 3.5 mph - N/A   Overcast
8:55 AM 44.6 °F - 43.5 °F 96% 29.63 in 10.0 mi Calm Calm - N/A   Overcast
9:15 AM 44.8 °F - 43.7 °F 96% 29.62 in 10.0 mi Calm Calm - N/A   Overcast
9:35 AM 45.3 °F - 43.9 °F 95% 29.60 in 7.0 mi Calm Calm - N/A   Overcast
9:55 AM 45.5 °F - 43.9 °F 94% 29.60 in 10.0 mi Calm Calm - N/A   Overcast
10:15 AM 46.4 °F - 44.6 °F 93% 29.60 in 10.0 mi Calm Calm - N/A   Overcast
10:35 AM 46.6 °F - 45.0 °F 94% 29.64 in 5.0 mi West 3.5 mph - N/A   Overcast
10:55 AM 46.4 °F 44.3 °F 45.3 °F 96% 29.63 in 3.0 mi SW 4.6 mph - N/A   Overcast
11:15 AM 46.8 °F - 45.5 °F 95% 29.62 in 5.0 mi SW 3.5 mph - N/A   Overcast
11:35 AM 47.1 °F - 45.9 °F 95% 29.62 in 4.0 mi SW 5.8 mph - N/A   Overcast
11:55 AM 46.4 °F 43.5 °F 46.4 °F 100% 29.61 in 4.0 mi SW 5.8 mph - N/A   Overcast
12:15 PM 48.2 °F - 45.7 °F 91% 29.62 in 10.0 mi West 3.5 mph - N/A   Overcast
12:35 PM 49.1 °F - 44.8 °F 85% 29.63 in 10.0 mi WSW 5.8 mph - N/A   Overcast
12:55 PM 47.8 °F - 45.7 °F 92% 29.62 in 3.0 mi WSW 6.9 mph - N/A Rain Light Rain
1:15 PM 47.3 °F - 46.4 °F 97% 29.63 in 1.8 mi SW 4.6 mph - N/A   Drizzle
1:35 PM 47.5 °F - 46.0 °F 95% 29.62 in 2.5 mi SSW 5.8 mph - 0.01 in   Light Drizzle
1:55 PM 48.0 °F - 46.2 °F 93% 29.62 in 7.0 mi SW 9.2 mph - 0.01 in   Overcast
2:15 PM 48.2 °F - 45.1 °F 89% 29.62 in 10.0 mi WSW 8.1 mph - N/A   Overcast
2:35 PM 47.3 °F - 45.7 °F 94% 29.62 in 2.0 mi SW 6.9 mph - N/A Rain Heavy Rain
2:55 PM 47.7 °F - 46.2 °F 95% 29.62 in 3.0 mi WSW 5.8 mph - N/A   Light Drizzle
3:15 PM 48.2 °F - 45.5 °F 90% 29.59 in 10.0 mi WSW 5.8 mph - N/A   Overcast
3:35 PM 48.7 °F - 45.1 °F 87% 29.59 in 10.0 mi WSW 9.2 mph - N/A   Overcast
3:55 PM 48.0 °F - 44.2 °F 87% 29.60 in 10.0 mi SW 9.2 mph - N/A   Overcast
4:15 PM 46.6 °F - 44.6 °F 93% 29.60 in 2.5 mi WSW 10.4 mph - N/A Rain Light Rain
4:35 PM 46.8 °F - 44.8 °F 93% 29.61 in 5.0 mi SW 11.5 mph - N/A   Overcast
4:55 PM 45.5 °F 39.9 °F 43.5 °F 93% 29.61 in 2.5 mi WSW 11.5 mph 19.6 mph N/A Rain Light Rain
5:15 PM 44.2 °F 37.3 °F 42.3 °F 93% 29.63 in 2.5 mi West 15.0 mph 20.7 mph N/A   Overcast
5:35 PM 43.3 °F 37.7 °F 41.4 °F 93% 29.62 in 3.0 mi WSW 10.4 mph - N/A   Overcast
5:55 PM 43.7 °F 39.1 °F 40.5 °F 88% 29.62 in 10.0 mi SW 8.1 mph - N/A   Overcast
6:15 PM 43.9 °F 39.9 °F 39.2 °F 84% 29.62 in 10.0 mi SSW 6.9 mph - N/A   Overcast
6:35 PM 44.1 °F 37.1 °F 37.9 °F 79% 29.62 in 10.0 mi SW 15.0 mph 20.7 mph N/A   Overcast
6:55 PM 43.0 °F 37.2 °F 36.3 °F 77% 29.63 in 10.0 mi WSW 10.4 mph 20.7 mph N/A   Overcast
7:15 PM 41.9 °F 34.6 °F 36.5 °F 81% 29.62 in 10.0 mi WSW 13.8 mph 19.6 mph N/A   Overcast
7:35 PM 41.4 °F 34.3 °F 35.6 °F 80% 29.63 in 10.0 mi West 12.7 mph 17.3 mph N/A   Overcast
7:55 PM 41.2 °F 34.5 °F 35.4 °F 80% 29.62 in 10.0 mi WSW 11.5 mph - N/A   Overcast
8:15 PM 41.0 °F 35.2 °F 35.2 °F 80% 29.62 in 10.0 mi WSW 9.2 mph 16.1 mph N/A   Overcast
8:35 PM 41.0 °F 34.3 °F 33.8 °F 76% 29.62 in 10.0 mi West 11.5 mph 18.4 mph N/A   Overcast
8:55 PM 40.6 °F 34.3 °F 34.3 °F 78% 29.63 in 10.0 mi WSW 10.4 mph - N/A   Overcast
9:15 PM 40.6 °F 33.0 °F 34.7 °F 79% 29.64 in 10.0 mi WSW 13.8 mph 20.7 mph N/A   Overcast
9:35 PM 40.5 °F 34.1 °F 33.8 °F 77% 29.64 in 10.0 mi WSW 10.4 mph - N/A   Overcast
9:55 PM 40.1 °F 32.7 °F 33.4 °F 77% 29.64 in 10.0 mi WSW 12.7 mph 21.9 mph N/A   Overcast
10:15 PM 39.7 °F 33.2 °F 33.1 °F 77% 29.65 in 10.0 mi West 10.4 mph 18.4 mph N/A   Overcast
10:35 PM 39.2 °F 30.5 °F 31.8 °F 75% 29.65 in 10.0 mi WSW 16.1 mph 24.2 mph N/A   Overcast
10:55 PM 39.2 °F 31.6 °F 32.0 °F 75% 29.65 in 10.0 mi WSW 12.7 mph 18.4 mph N/A   Overcast
11:15 PM 38.7 °F 30.5 °F 31.8 °F 76% 29.65 in 10.0 mi WSW 13.8 mph 18.4 mph N/A   Overcast
11:35 PM 38.3 °F 30.5 °F 31.6 °F 77% 29.65 in 10.0 mi WSW 12.7 mph 16.1 mph N/A   Overcast
11:55 PM 37.9 °F 30.5 °F 31.1 °F 76% 29.65 in 10.0 mi WSW 11.5 mph 17.3 mph N/A   Overcast